{"data":{"norad_id":57897,"epoch":"2026-05-24T23:29:39.049152Z","epoch_age_seconds":73399,"freshness":"FRESH","line1":"1 57897U 23146G   26144.97892418  .00000839  00000+0  40009-4 0  9993","line2":"2 57897  43.0012 243.3717 0001422 272.5403  87.5286 15.27587069148725","mean_motion":15.27587069,"eccentricity":0.0001422,"inclination_deg":43.0012,"raan_deg":243.3717,"arg_perigee_deg":272.5403,"mean_anomaly_deg":87.5286,"bstar":4.0009e-5,"rev_number":14872,"period_min":94.266312488666,"perigee_km":482.05227133932,"apogee_km":484.00358664512,"semimajor_km":6861.1649289922,"source":"CELESTRAK","updated_at":"2026-05-25T13:38:18.453003Z"}}